Weather Roundup
Issued by NWS

Home | Current Version | Previous Version | Text Only | Print | Product List | Glossary On
Versions: 1 2 3 4 5 6 7 8 9 10 11 12 13 14 15 16 17 18 19 20 21 22 23 24 25 26 27 28 29 30 31 32 33 34 35 36 37 38 39 40 41 42 43 44 45 46 47 48 49 50
000
NZUS93 KARX 261710
HRRWXR

CURRENT HOURLY OBSERVATIONS ACROSS
MUCH OF THE UPPER MISSISSIPPI VALLEY
NATIONAL WEATHER SERVICE LA CROSSE WI
1200 PM CDT SUN APR 26 2015


...SOUTHEAST MINNESOTA...


CITY           SKY/WX    TMP DP  RH WIND       PRES   REMARKS
ROCHESTER      SUNNY     52  28  39 NE8       30.12S
ROCHESTER/MAYO FAIR      51  25  36 E3        30.12S
WINONA         SUNNY     54  28  37 CALM      30.12F
AUSTIN         SUNNY     52  27  37 CALM      30.11R
ALBERT LEA     SUNNY     54  25  32 S7        30.10R
DODGE CENTER   SUNNY     54  28  37 E7        30.11S
PRESTON        SUNNY     52  27  38 NE9       30.11S
OWATONNA       SUNNY     55  21  26 E7        30.11S
FARIBAULT      SUNNY     55  25  30 CALM      30.11S
$$

...ELSEWHERE IN MINNESOTA...


CITY           SKY/WX    TMP DP  RH WIND       PRES   REMARKS
MINNEAPOLIS    SUNNY     54  24  31 N6        30.13S
INTNL FALLS    SUNNY     54  18  24 N9        30.18S
DULUTH         SUNNY     49  20  31 SE13      30.16S
RED WING       SUNNY     54  21  28 S7        30.12S
REDWOOD FALLS  SUNNY     58  24  27 E9        30.09F
MANKATO        SUNNY     55  27  33 NE6       30.11S
WORTHINGTON    SUNNY     57  30  35 E3        30.09S
FAIRMONT       SUNNY     57  30  35 N5        30.08F
$$

...SOUTHWEST WISCONSIN...


CITY           SKY/WX    TMP DP  RH WIND       PRES   REMARKS
LA CROSSE      SUNNY     55  25  31 VRB6      30.10F
PRAIRIE DU CHI SUNNY     54  24  31 W5        30.08F
BOSCOBEL       SUNNY     56  23  27 E6        30.09F
LONE ROCK      SUNNY     53  29  39 E6        30.08F
PLATTEVILLE    SUNNY     53  29  39 NE6       30.07S
FORT MC COY    SUNNY     55  20  25 NE5       30.10F
CAMP DOUGLAS   SUNNY     55  23  28 N8        30.08F
VIROQUA        FAIR      53  23  31 NE6       30.08F
WIS DELLS      SUNNY     52  23  31 CALM      30.08F
$$

...ELSEWHERE IN WISCONSIN...


CITY           SKY/WX    TMP DP  RH WIND       PRES   REMARKS
MILWAUKEE      SUNNY     47  32  56 NE9       30.06F
MADISON        MOSUNNY   53  27  36 NE5       30.07F
GREEN BAY      SUNNY     55  30  38 NE9       30.07S
EAU CLAIRE     SUNNY     54  21  27 NE9       30.12S
BLACK RVR FLS  FAIR      55  20  25 N6        30.09F
MEDFORD        SUNNY     52  24  33 NE9       30.09F
WAUSAU         SUNNY     55  22  27 NW8       30.06F
WIS RAPIDS     SUNNY     54  18  24 NE6       30.10S
MARSHFIELD     SUNNY     55  23  28 NE10      30.09S
RICE LAKE      SUNNY     54  22  29 NW6       30.14S
$$

...NORTHEAST IOWA...


CITY           SKY/WX    TMP DP  RH WIND       PRES   REMARKS
DECORAH        SUNNY     54  27  35 VRB5G15   30.08S
MASON CITY     SUNNY     56  24  29 VRB6      30.11R
CHARLES CITY   SUNNY     54  25  32 NE6G13    30.10S
OELWEIN        SUNNY     54  28  37 NE12      30.08F
$$

...ELSEWHERE IN IOWA...


CITY           SKY/WX    TMP DP  RH WIND       PRES   REMARKS
DES MOINES     MOSUNNY   58  32  37 E7        30.06F
IOWA CITY      SUNNY     54  35  48 NE9       30.07S
FORT DODGE     SUNNY     57  36  44 E6        30.09S
$$

...NORTHERN ILLINOIS...


CITY           SKY/WX    TMP DP  RH WIND       PRES   REMARKS
CHICAGO-OHARE  MOSUNNY   53  29  39 NE12      30.03S
CHICAGO-MIDWAY SUNNY     54  30  40 NE15      30.03S
MOLINE         SUNNY     55  33  43 NE10      30.05S
ROCKFORD       MOSUNNY   55  28  35 NE13      30.07F
PEORIA         SUNNY     57  34  41 E12G22    30.02S
$$

NOTE: "FAIR" INDICATES FEW OR NO CLOUDS BELOW 12,000 FEET WITH NO
SIGNIFICANT WEATHER AND/OR OBSTRUCTIONS TO VISIBILITY. WIND
SPEEDS ARE IN MILES-PER-HOUR.



USA.gov is the U.S. government's official web portal to all federal, state and local government web resources and services.